www.pogodaiklimat.ru

Погода и климат >> Архив погоды >> Россия >> Ненецкий АО >> Мыс Белый Нос


ПОГОДА на Мысе Белый Нос

  • Прогноз погоды на Мысе Белый Нос
  • Монитор погоды на Мысе Белый Нос

АРХИВ ПОГОДЫ на Мысе Белый Нос

Время (UTC), дата Ветер
(напр.,м/с)
 
Видим.   Явления Облачность Т
(С)
Тd
(С)
f
(%)
Тe
(С)
Тes
(С)
Комфортность P
(гПа)
Po
(гПа)
Тmin
(С)
Tmax
(С)
R
(мм)
R24
(мм)
S
(см)
06 15.04 С 15-18
{18}
500 м сильная метель 9/9 300 м
[Cb cap]
-8.1 -9.0 93 -20 -20 1006.7 1005.9 -8.8
09 15.04 С 13-16
{17}
н/о н/о -8.7 -10.1 90 -20 -20 1009.8 1009.0
12 15.04 С 11-14
{16}
20 км сильный позёмок 3/1 300 м
[Sc diur, vesp Ci fib]
-10.3 -12.9 81 -21 -21 1011.8 1011.0
15 15.04 С 11-14
{14}
20 км позёмок 8/6 300 м
[Sc diur, vesp Ci fib]
-12.0 -14.0 85 -23 -23 1014.2 1013.4 -7.9
18 15.04 СВ 13-16
{17}
4000 м метель 8/8 300 м
[Sc diur, vesp]
-12.9 -14.9 85 -25 -25 1016.4 1015.6
21 15.04 СВ 11-14
{17}
н/о н/о -12.4 -14.1 87 -24 -24 1019.3 1018.5
00 16.04 СВ 9-11
{16}
20 км позёмок 3/3 300 м
[Sc]
-15.6 -17.7 84 -27 -27 1022.9 1022.1
03 16.04 СВ 12-14
{17}
4000 м метель 4/4 300 м
[Sc]
-15.3 -17.1 86 -28 -28 1025.9 1025.1 -15.7 50
06 16.04 С 8
{14}
20 км позёмок 3/3 300 м
[Sc diur, vesp]
-14.4 -16.3 85 -25 -24 1028.7 1027.8
09 16.04 С 10-12
{13}
н/о н/о -13.0 -14.8 86 -24 -24 1030.5 1029.7
12 16.04 С 7
{12}
20 км позёмок 4/3 300 м
[Sc Ci fib]
-12.4 -14.3 86 -22 -21 1032.2 1031.4
15 16.04 СЗ 5 20 км {метель} 4/3 300 м
[Sc Ci fib]
-15.1 -16.6 88 -24 -24 1032.7 1031.9 -12.3
18 16.04 С 2 20 км {метель} 6/0
[Ci fib]
-18.4 -19.5 91 -24 -24 1031.6 1030.8
21 16.04 ЮЗ 2 н/о н/о -17.0 -18.2 90 -22 -22 1030.2 1029.4
00 17.04 ЮЗ 6 20 км 10/0
[Ac trans Cs]
-8.9 -10.1 91 -17 -17 1027.0 1026.2
03 17.04 ЮЗ 9-12
{12}
20 км позёмок 10/0
[Cs]
-7.9 -9.0 92 -18 -18 1023.2 1022.4 -19.1 50
06 17.04 ЮЗ 11-14
{14}
2000 м метель 10/10 300 м
[Cb cap]
-6.1 -6.8 95 -17 -17 1018.3 1017.6
09 17.04 ЮЗ 10-13
{14}
н/о н/о -3.3 -3.6 98 -13 -13 1014.5 1013.7
12 17.04 З 8-11
{13}
1000 м слаб. ливневой снег {метель} 10/10 300 м
[Cb cap]
-0.8 -0.8 100 -9 -9 1012.1 1011.3
15 17.04 З 6
{11}
20 км {ливн. осадки, метель} 10/10 300 м
[Sc diur, vesp]
-0.6 -0.6 100 -8 -8 1010.9 1010.1 -0.3 0.6
18 17.04 СЗ 6
{10}
20 км {ливн. осадки, метель} 10/10 600 м
[Sc]
-0.8 -0.9 99 -8 -8 1010.0 1009.3
21 17.04 З 7 н/о н/о -1.0 -1.2 99 -9 -9 1009.6 1008.8
00 18.04 СЗ 4 20 км 10/0
[Ac trans Cs]
-1.9 -2.0 99 -8 -8 1009.7 1008.9
03 18.04 СЗ 4 20 км 10/0
[Ac trans Cs]
-1.9 -3.6 88 -8 -7 1010.3 1009.5 -2.3 50
06 18.04 З 4 20 км 10/0
[Ac trans Cs]
-1.3 -2.0 95 -7 -5 1010.5 1009.7
09 18.04 З 7 н/о н/о -0.0 -0.9 94 -7 -7 1010.3 1009.6
12 18.04 З 6
{10}
20 км 10/0
[Ac trans Cs]
-0.3 -1.2 94 -7 -6 1009.8 1009.0
15 18.04 СЗ 6
{12}
20 км {ливн. осадки, метель} 9/4 300 м
[Cb cap Ac trans Cs]
-1.6 -2.6 93 -9 -9 1009.4 1008.6 +0.1 0.0
18 18.04 СЗ 7
{11}
20 км {ливн. осадки, метель} 3/0
[Ac cuf Ci ing]
-5.7 -6.5 94 -14 -14 1009.8 1009.0
21 18.04 С 6 н/о н/о -5.6 -6.5 93 -14 -14 1011.9 1011.1
00 19.04 СЗ 5 20 км 1/0
[Ac lent]
-11.4 -12.6 91 -19 -19 1013.1 1012.3
03 19.04 СЗ 3 20 км 3/0
[Ci fib]
-9.6 -11.3 87 -16 -14 1014.0 1013.2 -11.6 51
06 19.04 СЗ 3 20 км 3/0
[Ci fib]
-6.4 -8.2 87 -12 -8 1015.2 1014.4
09 19.04 СЗ 3 н/о н/о -3.9 -5.7 87 -9 -9 1016.4 1015.6
12 19.04 СЗ 1 20 км 9/0
[Ac trans Cs]
-2.3 -5.3 80 -4 -2 1016.9 1016.2
15 19.04 СВ 2 20 км 10/0
[Ac trans Cs]
-4.7 -5.8 92 -9 -9 1017.0 1016.2 -2.1
18 19.04 ЮВ 1 4000 м слаб. снег 10/0
[As op]
-5.9 -7.0 92 -8 -8 1016.9 1016.1
21 19.04 ЮВ 4 н/о н/о -6.4 -7.0 95 -13 -13 1016.2 1015.4
00 20.04 Ю 7 20 км позёмок {снег} 10/0
[As op]
-5.7 -6.1 97 -14 -14 1014.4 1013.6
03 20.04 ЮЗ 2 4000 м дымка 10/0
[As trans]
-3.2 -3.3 99 -8 -7 1013.8 1013.0 -6.7 0.3 52
06 20.04 З 4 20 км {метель} 10/10 300 м
[Sc]
-0.2 -0.2 100 -6 -6 1013.5 1012.8
09 20.04 З 5 н/о н/о -0.1 -0.1 100 -7 -7 1013.2 1012.4
12 20.04 З 6 2000 м в посл. час снег 10/10 300 м
[St]
-0.4 -0.4 100 -7 -7 1012.3 1011.5
15 20.04 ЮЗ 8-10
{11}
4000 м дымка 10/10 300 м
[St]
-0.4 -0.4 100 -8 -8 1010.0 1009.2 0.0 0.0
18 20.04 ЮЗ 9-11
{12}
2000 м слаб. снег 10/0 300 м
[As op]
-0.8 -0.8 100 -9 -9 1005.7 1005.0
21 20.04 З 6
{11}
н/о н/о -0.1 -0.1 100 -7 -7 1003.2 1002.4
00 21.04 СЗ 7
{10}
20 км {снег} 10/10 600 м
[Sc]
-0.3 -0.3 100 -8 -8 1002.9 1002.1
03 21.04 З 5
{10}
20 км 10/10 600 м
[Sc]
-0.2 -0.2 100 -7 -7 1003.5 1002.8 -0.8 0.2 52
06 21.04 З 6
{10}
20 км 6/6 300 м
[Sc diur, vesp]
-0.2 -0.3 99 -7 -6 1004.4 1003.7
09 21.04 З 6 н/о н/о -0.3 -0.3 100 -7 -7 1005.3 1004.6
12 21.04 З 6
{10}
4000 м слаб. снег {метель} 10/10 300 м
[St]
-0.1 -0.1 100 -7 -7 1005.7 1004.9
15 21.04 З 7 20 км {снег} 10/10 300 м
[Sc]
-0.1 -0.1 100 -8 -8 1004.8 1004.1 -0.1 0.0
18 21.04 ЮЗ 7 4000 м слаб. снег 10/10 300 м
[Sc]
-0.2 -0.2 100 -8 -8 1002.0 1001.2
21 21.04 ЮЗ 9-11
{12}
н/о н/о +0.1 +0.1 100 -8 -8 997.8 997.1
00 22.04 З 9-12
{14}
4000 м дымка {снег} 10/10 300 м
[St]
+0.7 +0.7 100 -7 -7 997.2 996.4
03 22.04 ЮЗ 8-10
{15}
20 км 10/10 300 м
[Sc]
+0.4 +0.4 100 -7 -7 997.0 996.2 -0.5 1 49

 

Местоположение метеостанции Мыс Белый Нос (Ненецкий АО, Россия): широта 69.60 долгота 60.21 высота над уровнем моря 6 м.

В архиве по умолчанию представлена погода на Мысе Белый Нос за последнюю неделю. Архивные данные за месяц целиком и за предыдущие месяцы, начиная с января 2011 года, Вы можете получить, выбрав интересующий диапазон дат из раскрывающегося списка и нажав кнопку "Ввод!".


*Определитесь, кто Вы:
робот инопланетянин человек

Внимание! Время в таблицах - всемирное. Для получения местного времени необходимо прибавить поправку, которая равна 3 ч.

Смотрите также архив погоды в соседних городах и на ближайших метеорологических станциях:

Погода в Амдерме (Ненецкий АО, Россия) (60 км)
Погода в Имени Федорова (Ненецкий АО, Россия) (104 км)
Погода в Варандее (Ненецкий АО, Россия) (122 км)
Погода в Усть-Каре (Ненецкий АО, Россия) (189 км)
Погода на Мысе Константиновском (Ненецкий АО, Россия) (220 км)
Погода в Марресале (Ямало-Ненецкий АО, Россия) (255 км)
Погода в Хорей-Вере (Ненецкий АО, Россия) (257 км)
Погода в Ходоварихе (Ненецкий АО, Россия) (265 км)
Погода в Воркуте (Коми, Россия) (281 км)
Погода в Харуте (Ненецкий АО, Россия) (307 км)

Пояснения к столбцам:

Ветер - указаны скорость ветра в м/с - средняя за 10 мин, порывы в срок и между сроками (в фигурных скобках) и направление, откуда дует ветер: С - северный, СВ - северо-восточный, В - восточный, ЮВ - юго-восточный, Ю - южный, ЮЗ - юго-западный, З - западный, СЗ - северо-западный.
Видимость - горизонтальная дальность видимости в метрах или километрах. При видимости от 1 до 10 км при отсутствии осадков обычно наблюдается дымка, при ухудшении видимости до 1 км и менее - туман. В сухую погоду видимость может ухудшаться дымом, пылью или мглою.
Явления - указаны атмосферные явления, наблюдавшиеся в срок или в последний час перед сроком; фигурными скобками обозначены явления, наблюдавшиеся между сроками (за 1-3 часа до срока); квадратными скобками обозначены град или гололедные отложения с указанием их диаметра в мм.
Облачность - указаны через наклонную черту общая и нижняя облачность в баллах и высота нижней границы облаков в метрах; квадратными скобками обозначены формы облаков: Ci - перистые, Cs - перисто-слоистые, Cc - перисто-кучевые, Ac - высококучевые, As - высокослоистые, Sc - слоисто-кучевые, Ns - слоисто-дождевые, Cu - кучевые, Cb - кучево-дождевые. Подробнее классификацию облаков см. в Атласе облаков (PDF).
T - Температура воздуха - температура, измеренная на высоте 2 м над землей.
Td - Температура точки росы - температура, при понижении до которой содержащийся в воздухе водяной пар достигнет насыщения.
f - Относительная влажность воздуха - влажноcть воздуха, измеренная на высоте 2 м над землей.
Te - Эффективная температура - температура, которую ощущает одетый по сезону человек в тени. Характеристика душности погоды. При расчете учитывается влияние влажности воздуха и скорости ветра на теплоощущения человека.
Tes - Эффективная температура на солнце - температура, которую ощущает человек, с поправкой на солнечный нагрев. Характеристика знойности погоды. Зависит от высоты солнца над горизонтом, облачности и скорости ветра. Ночью, в пасмурную погоду, а также при ветре 12 м/с и более поправка равна нулю.
P - Атмосферное давление - приведенное к уровню моря атмосферное давление.
Po - Атмосферное давление - измеренное на уровне метеостанции атмосферное давление.
Tmin - Минимальная температура - минимум температуры воздуха на высоте 2 м над землей.
Tmax - Максимальная температура - максимум температуры воздуха на высоте 2 м над землей.
R - Количество осадков - Количество выпавших осадков за период времени, мм. При наведении курсора мыши на число - период времени, за который выпало указанное количество осадков.
R24 - Количество осадков - Количество выпавших осадков за 24 часа, мм.
S - Снежный покров - Высота снежного покрова, см. При наведении курсора мыши на число - состояние снежного покрова и степень покрытия местности в баллах.